Regional Weather Roundup
Issued by NWS

Home | Current Version | Previous Version | Graphics & Text | Print | Product List | Glossary On
Versions: 1 2 3 4 5 6 7 8 9 10 11 12 13 14 15 16 17 18 19 20 21 22 23 24 25 26 27 28 29 30 31 32 33 34 35 36 37 38 39 40 41 42 43 44 45 46 47 48 49 50
000
ASUS43 KBIS 290702
RWRND

NORTH DAKOTA REGIONAL WEATHER ROUNDUP
NATIONAL WEATHER SERVICE BISMARCK ND
200 AM CDT WED MAR 29 2017

NOTE: "FAIR" INDICATES FEW OR NO CLOUDS BELOW 12,000 FEET WITH NO
SIGNIFICANT WEATHER AND/OR OBSTRUCTIONS TO VISIBILITY.


NDZ001>003-009>011-017-290800-
NORTHWEST NORTH DAKOTA

CITY           SKY/WX    TMP DP  RH WIND       PRES   REMARKS
WILLISTON      FOG       33  33 100 CALM      30.09F VSB 1/4
MINOT          CLOUDY    41  39  93 NW3       30.09F
MINOT AFB      LGT RAIN  39  38  98 E8        30.08F
$$

NDZ018>021-031>035-040>046-290800-
SOUTHWEST NORTH DAKOTA

CITY           SKY/WX    TMP DP  RH WIND       PRES   REMARKS
BISMARCK       MOCLDY    40  36  86 S3        30.15F
DICKINSON      MOCLDY    40  39  97 S10       30.08F
GARRISON         N/A     40  35  83 S3        30.10F
HETTINGER ARPT MOCLDY    43  40  89 S7        30.12F
$$

NDZ004>008-012>016-024-026-027-054-290800-
NORTHEAST NORTH DAKOTA

CITY           SKY/WX    TMP DP  RH WIND       PRES   REMARKS
GRAND FORKS    CLEAR     34  33  96 NW3       30.20S
GRND FRKS AFB  CLEAR     32  32 100 CALM      30.20F FOG
DEVILS LAKE    FAIR      34  34 100 SE5       30.17F FOG
$$

NDZ022-023-025-028>030-036>039-047>053-290800-
SOUTHEAST NORTH DAKOTA

CITY           SKY/WX    TMP DP  RH WIND       PRES   REMARKS
FARGO          CLOUDY    40  36  86 NE5       30.17F
JAMESTOWN      FAIR      35  34  96 CALM      30.17S FOG
$$





USA.gov is the U.S. government's official web portal to all federal, state and local government web resources and services.